SVA156 OEDF-OKKK

Flight info

Callsign SVA156
Flight time 1h 30m
Altitude 26000
Route PUSRA H741 ASVIR
Aircraft A321/M-SDE3FGHIRWY/LB1

Departure

Time 2026-05-04 00:48
Airport King Fahd International Airport (OEDF)

Arrival

Time 2026-05-04 02:18
Airport Kuwait International Airport (OKKK)
Time Latitude Longitude Altitude Speed Heading
2026-05-04 00:21 26.47146 49.79353 86 ft 0 kts 63°
2026-05-04 00:33 26.47140 49.79341 90 ft 4 kts 63°
2026-05-04 00:33 26.47112 49.79292 89 ft 4 kts 23°
2026-05-04 00:33 26.47099 49.79289 87 ft 0 kts 336°
2026-05-04 00:38 26.47114 49.79280 89 ft 7 kts 328°
2026-05-04 00:39 26.47191 49.79238 88 ft 18 kts 335°
2026-05-04 00:39 26.47336 49.79166 89 ft 29 kts 338°
2026-05-04 00:39 26.47381 49.79148 86 ft 7 kts 342°
2026-05-04 00:39 26.47464 49.79121 89 ft 18 kts 347°
2026-05-04 00:40 26.47507 49.79129 87 ft 7 kts 25°
2026-05-04 00:40 26.47548 49.79205 87 ft 17 kts 73°
2026-05-04 00:40 26.47587 49.79365 91 ft 25 kts 74°
2026-05-04 00:40 26.47638 49.79570 95 ft 33 kts 74°
2026-05-04 00:41 26.47705 49.79839 96 ft 43 kts 74°
2026-05-04 00:41 26.47795 49.80200 87 ft 54 kts 74°
2026-05-04 00:41 26.47843 49.80436 89 ft 5 kts 108°
2026-05-04 00:41 26.47849 49.80460 88 ft 7 kts 61°
2026-05-04 00:42 26.47879 49.80546 89 ft 17 kts 75°
2026-05-04 00:42 26.47922 49.80712 90 ft 27 kts 73°
2026-05-04 00:42 26.47930 49.80866 89 ft 18 kts 126°
2026-05-04 00:42 26.47792 49.80911 89 ft 26 kts 166°
2026-05-04 00:43 26.47583 49.80973 90 ft 36 kts 165°
2026-05-04 00:43 26.47308 49.81059 86 ft 46 kts 164°
2026-05-04 00:43 26.46970 49.81163 88 ft 55 kts 165°
2026-05-04 00:43 26.46579 49.81283 88 ft 62 kts 165°
2026-05-04 00:44 26.46214 49.81396 89 ft 53 kts 164°
2026-05-04 00:44 26.45842 49.81511 88 ft 45 kts 164°
2026-05-04 00:44 26.45657 49.81569 88 ft 30 kts 165°
2026-05-04 00:44 26.45534 49.81606 86 ft 6 kts 165°
2026-05-04 00:45 26.45458 49.81616 89 ft 17 kts 186°
2026-05-04 00:45 26.45432 49.81603 88 ft 0 kts 226°
2026-05-04 00:45 26.45428 49.81586 89 ft 7 kts 257°
2026-05-04 00:46 26.45430 49.81501 89 ft 11 kts 281°
2026-05-04 00:46 26.45441 49.81465 86 ft 10 kts 296°
2026-05-04 00:46 26.45518 49.81406 90 ft 19 kts 337°
2026-05-04 00:46 26.45570 49.81385 86 ft 6 kts 348°
2026-05-04 00:47 26.45644 49.81358 86 ft 17 kts 331°
2026-05-04 00:47 26.45693 49.81346 87 ft 3 kts 355°
2026-05-04 00:47 26.45748 49.81328 87 ft 20 kts 345°
2026-05-04 00:47 26.46094 49.81224 90 ft 86 kts 344°
2026-05-04 00:48 26.46764 49.81014 90 ft 135 kts 344°
2026-05-04 00:48 26.47715 49.80720 88 ft 173 kts 345°
2026-05-04 00:48 26.48962 49.80335 354 ft 188 kts 343°
2026-05-04 00:48 26.50191 49.79981 992 ft 178 kts 345°
2026-05-04 00:49 26.51408 49.79620 1423 ft 189 kts 343°
2026-05-04 00:49 26.52758 49.79197 1792 ft 216 kts 343°
2026-05-04 00:49 26.54301 49.78710 2360 ft 242 kts 343°
2026-05-04 00:49 26.55976 49.78183 3113 ft 256 kts 344°
2026-05-04 00:50 26.57655 49.77548 4079 ft 260 kts 330°
2026-05-04 00:50 26.59057 49.76242 5089 ft 263 kts 317°
2026-05-04 00:50 26.60463 49.74935 6117 ft 264 kts 324°
2026-05-04 00:50 26.61981 49.73733 7079 ft 267 kts 326°
2026-05-04 00:51 26.63553 49.72557 8036 ft 271 kts 327°
2026-05-04 00:51 26.65107 49.71401 8956 ft 274 kts 327°
2026-05-04 00:51 26.66708 49.70198 9877 ft 278 kts 326°
2026-05-04 00:51 26.68337 49.68957 10477 ft 293 kts 325°
2026-05-04 00:52 26.70087 49.67607 10771 ft 318 kts 325°
2026-05-04 00:52 26.71977 49.66135 11214 ft 334 kts 324°
2026-05-04 00:52 26.73883 49.64644 11942 ft 339 kts 324°
2026-05-04 00:52 26.75813 49.63130 12747 ft 343 kts 324°
2026-05-04 00:53 26.77809 49.61562 13580 ft 348 kts 323°
2026-05-04 00:53 26.79774 49.60019 14303 ft 351 kts 323°
2026-05-04 00:53 26.81802 49.58429 15001 ft 355 kts 323°
2026-05-04 00:53 26.83838 49.56833 15643 ft 359 kts 322°
2026-05-04 00:54 26.85934 49.55190 15942 ft 373 kts 322°
2026-05-04 00:54 26.88108 49.53482 16018 ft 390 kts 322°
2026-05-04 00:54 26.90375 49.51699 16020 ft 406 kts 322°
2026-05-04 00:54 26.92725 49.49851 16020 ft 422 kts 322°
2026-05-04 00:55 26.95165 49.47930 16020 ft 437 kts 322°
2026-05-04 00:55 26.97643 49.45981 16669 ft 432 kts 322°
2026-05-04 00:55 27.00098 49.44053 17568 ft 424 kts 322°
2026-05-04 00:55 27.02487 49.42181 18406 ft 415 kts 321°
2026-05-04 00:56 27.04832 49.40349 19154 ft 407 kts 321°
2026-05-04 00:56 27.07133 49.38557 19903 ft 399 kts 321°
2026-05-04 00:56 27.09406 49.36791 20668 ft 391 kts 321°
2026-05-04 00:56 27.11611 49.35083 21420 ft 383 kts 321°
2026-05-04 00:57 27.13780 49.33409 22191 ft 375 kts 321°
2026-05-04 00:57 27.15911 49.31772 22944 ft 367 kts 321°
2026-05-04 00:57 27.17997 49.30173 23641 ft 360 kts 320°
2026-05-04 00:57 27.20043 49.28613 24267 ft 352 kts 320°
2026-05-04 00:58 27.22052 49.27088 24889 ft 344 kts 320°
2026-05-04 00:58 27.24026 49.25598 25501 ft 336 kts 319°
2026-05-04 00:58 27.25970 49.24086 25588 ft 345 kts 317°
2026-05-04 00:58 27.27910 49.22491 25788 ft 351 kts 317°
2026-05-04 00:59 27.29947 49.20815 25837 ft 361 kts 317°
2026-05-04 00:59 27.31986 49.19176 25840 ft 372 kts 319°
2026-05-04 00:59 27.34145 49.17489 25839 ft 382 kts 319°
2026-05-04 00:59 27.36392 49.15800 25841 ft 392 kts 321°
2026-05-04 01:00 27.38278 49.14433 25842 ft 400 kts 321°
2026-05-04 01:45 27.38635 49.14174 25806 ft 401 kts 323°
2026-05-04 01:45 27.41010 49.12461 25476 ft 405 kts 323°
2026-05-04 01:45 27.45686 49.09196 25303 ft 388 kts 322°
2026-05-04 01:46 27.47975 49.07575 25085 ft 385 kts 321°
2026-05-04 01:46 27.50222 49.05961 24848 ft 384 kts 321°
2026-05-04 01:46 27.52445 49.04348 24618 ft 383 kts 321°
2026-05-04 01:46 27.54675 49.02722 24267 ft 378 kts 321°
2026-05-04 01:47 27.56858 49.01131 23627 ft 372 kts 321°
2026-05-04 01:47 27.59054 48.99527 23399 ft 375 kts 321°
2026-05-04 01:47 27.61264 48.97912 23160 ft 376 kts 321°
2026-05-04 01:47 27.63459 48.96310 22897 ft 375 kts 321°
2026-05-04 01:48 27.65627 48.94728 22632 ft 373 kts 321°
2026-05-04 01:48 27.67782 48.93157 22379 ft 371 kts 321°
2026-05-04 01:48 27.69945 48.91580 22124 ft 369 kts 321°
2026-05-04 01:48 27.72107 48.90005 21871 ft 367 kts 321°
2026-05-04 01:49 27.74247 48.88447 21620 ft 365 kts 321°
2026-05-04 01:49 27.76357 48.86910 21374 ft 363 kts 321°
2026-05-04 01:49 27.78500 48.85348 21123 ft 362 kts 321°
2026-05-04 01:49 27.80604 48.83818 20873 ft 359 kts 322°
2026-05-04 01:50 27.82707 48.82294 20634 ft 357 kts 322°
2026-05-04 01:50 27.84790 48.80782 20390 ft 355 kts 321°
2026-05-04 01:50 27.86863 48.79275 20150 ft 353 kts 321°
2026-05-04 01:50 27.88916 48.77779 19903 ft 352 kts 321°
2026-05-04 01:51 27.90981 48.76272 19685 ft 350 kts 321°
2026-05-04 01:51 27.93016 48.74784 19453 ft 349 kts 321°
2026-05-04 01:51 27.95017 48.73235 19214 ft 344 kts 316°
2026-05-04 01:51 27.96859 48.71540 18988 ft 342 kts 316°
2026-05-04 01:52 27.98688 48.69853 18764 ft 340 kts 316°
2026-05-04 01:52 28.00529 48.68158 18532 ft 338 kts 316°
2026-05-04 01:52 28.02324 48.66507 17910 ft 330 kts 316°
2026-05-04 01:52 28.04097 48.64878 17412 ft 323 kts 316°
2026-05-04 01:53 28.05850 48.63266 17615 ft 319 kts 316°
2026-05-04 01:53 28.07589 48.61775 17790 ft 318 kts 322°
2026-05-04 01:53 28.09536 48.60540 17847 ft 324 kts 330°
2026-05-04 01:53 28.11546 48.59492 17853 ft 326 kts 330°
2026-05-04 01:54 28.13630 48.58405 17855 ft 328 kts 330°
2026-05-04 01:54 28.15674 48.57339 17859 ft 330 kts 330°
2026-05-04 01:54 28.17770 48.56240 17858 ft 332 kts 330°
2026-05-04 01:54 28.19881 48.55133 17852 ft 333 kts 330°
2026-05-04 01:55 28.22009 48.54017 17852 ft 335 kts 330°
2026-05-04 01:55 28.24120 48.52908 17852 ft 336 kts 330°
2026-05-04 01:55 28.26242 48.51790 17852 ft 337 kts 330°
2026-05-04 01:55 28.28365 48.50672 17851 ft 338 kts 330°
2026-05-04 01:56 28.30193 48.49711 17852 ft 338 kts 330°
2026-05-04 01:56 28.32075 48.48722 17851 ft 339 kts 330°
2026-05-04 01:56 28.34035 48.47692 17857 ft 340 kts 331°
2026-05-04 01:56 28.36158 48.46575 17855 ft 341 kts 331°
2026-05-04 01:57 28.38336 48.45428 17858 ft 342 kts 331°
2026-05-04 01:57 28.40139 48.44477 17855 ft 342 kts 331°
2026-05-04 01:57 28.42017 48.43487 17846 ft 342 kts 330°
2026-05-04 01:57 28.43388 48.42763 17884 ft 335 kts 330°
2026-05-04 01:58 28.45515 48.41635 17850 ft 337 kts 330°
2026-05-04 01:58 28.47655 48.40505 17850 ft 338 kts 330°
2026-05-04 01:58 28.48072 48.40285 17849 ft 339 kts 330°
2026-05-04 01:59 28.49763 48.39592 17850 ft 332 kts 337°
2026-05-04 01:59 28.51774 48.38585 17860 ft 316 kts 321°
2026-05-04 01:59 28.53124 48.37268 17855 ft 310 kts 309°
2026-05-04 02:00 28.53390 48.36935 17853 ft 309 kts 307°
2026-05-04 02:00 28.54678 48.34960 17652 ft 306 kts 298°
2026-05-04 02:00 28.55023 48.34284 17569 ft 305 kts 296°
2026-05-04 02:00 28.55635 48.32829 17395 ft 303 kts 292°
2026-05-04 02:01 28.56053 48.31773 17263 ft 303 kts 292°
2026-05-04 02:01 28.56770 48.30003 17063 ft 303 kts 293°
2026-05-04 02:01 28.57658 48.27841 16838 ft 301 kts 293°
2026-05-04 02:01 28.58538 48.25700 16847 ft 301 kts 293°
2026-05-04 02:02 28.59421 48.23537 16848 ft 302 kts 293°
2026-05-04 02:02 28.60302 48.21371 16852 ft 302 kts 292°
2026-05-04 02:02 28.61197 48.19164 16851 ft 302 kts 292°
2026-05-04 02:02 28.62091 48.17020 16851 ft 302 kts 297°
2026-05-04 02:03 28.63341 48.15098 16851 ft 306 kts 311°
2026-05-04 02:03 28.65002 48.13588 16704 ft 311 kts 326°
2026-05-04 02:03 28.67005 48.12544 16450 ft 314 kts 334°
2026-05-04 02:03 28.69027 48.11622 16198 ft 313 kts 333°
2026-05-04 02:04 28.71047 48.10695 15958 ft 312 kts 333°
2026-05-04 02:04 28.73060 48.09766 15707 ft 311 kts 333°
2026-05-04 02:04 28.75059 48.08843 15464 ft 310 kts 333°
2026-05-04 02:04 28.77044 48.07925 15214 ft 310 kts 333°
2026-05-04 02:05 28.79054 48.06997 14998 ft 309 kts 333°
2026-05-04 02:05 28.81049 48.06075 14750 ft 308 kts 333°
2026-05-04 02:05 28.83024 48.05160 14366 ft 303 kts 333°
2026-05-04 02:05 28.84955 48.04265 13626 ft 300 kts 333°
2026-05-04 02:06 28.86887 48.03371 12994 ft 290 kts 334°
2026-05-04 02:06 28.88721 48.02528 12482 ft 279 kts 334°
2026-05-04 02:06 28.90495 48.01711 11851 ft 273 kts 334°
2026-05-04 02:06 28.92241 48.00904 11201 ft 269 kts 335°
2026-05-04 02:07 28.93965 48.00106 10549 ft 265 kts 335°
2026-05-04 02:07 28.95603 47.99346 10127 ft 261 kts 335°
2026-05-04 02:07 28.97285 47.98562 10013 ft 263 kts 335°
2026-05-04 02:07 28.98100 47.98183 10007 ft 262 kts 336°
2026-05-04 02:08 28.99122 47.97711 10005 ft 263 kts 336°
2026-05-04 02:08 29.00252 47.97188 10009 ft 263 kts 335°
2026-05-04 02:08 29.01356 47.96676 10016 ft 263 kts 335°
2026-05-04 02:08 29.02185 47.96291 10015 ft 264 kts 335°
2026-05-04 02:09 29.02964 47.95923 10023 ft 264 kts 335°
2026-05-04 02:09 29.04667 47.95112 9874 ft 264 kts 335°
2026-05-04 02:09 29.06340 47.94280 9628 ft 261 kts 334°
2026-05-04 02:09 29.07986 47.93448 8995 ft 255 kts 334°
2026-05-04 02:10 29.09588 47.92635 8768 ft 252 kts 334°
2026-05-04 02:10 29.11185 47.91820 8197 ft 251 kts 335°
2026-05-04 02:10 29.12783 47.91008 7512 ft 250 kts 335°
2026-05-04 02:10 29.14376 47.90197 6857 ft 249 kts 335°
2026-05-04 02:11 29.15952 47.89395 6234 ft 247 kts 335°
2026-05-04 02:11 29.17498 47.88610 5585 ft 246 kts 336°
2026-05-04 02:11 29.19041 47.87830 4956 ft 244 kts 336°
2026-05-04 02:11 29.20583 47.87052 4352 ft 242 kts 336°
2026-05-04 02:12 29.22119 47.86274 4190 ft 245 kts 337°
2026-05-04 02:12 29.23681 47.85484 4096 ft 246 kts 337°
2026-05-04 02:12 29.25246 47.84691 3977 ft 246 kts 337°
2026-05-04 02:12 29.26813 47.83898 3875 ft 246 kts 337°
2026-05-04 02:13 29.28330 47.83127 3751 ft 244 kts 337°
2026-05-04 02:13 29.29675 47.82440 3641 ft 237 kts 337°
2026-05-04 02:13 29.31151 47.81689 3523 ft 235 kts 338°
2026-05-04 02:13 29.32729 47.81331 3396 ft 232 kts
2026-05-04 02:14 29.34196 47.82025 3282 ft 231 kts 40°
2026-05-04 02:14 29.35180 47.83527 2945 ft 244 kts 67°
2026-05-04 02:14 29.35422 47.85272 2760 ft 237 kts 95°
2026-05-04 02:15 29.34897 47.87101 2619 ft 238 kts 123°
2026-05-04 02:15 29.34144 47.88057 2462 ft 239 kts 142°
2026-05-04 02:15 29.32709 47.88943 2212 ft 229 kts 154°
2026-05-04 02:15 29.31289 47.89688 1923 ft 222 kts 154°
2026-05-04 02:16 29.29917 47.90414 1661 ft 210 kts 154°
2026-05-04 02:16 29.28649 47.91090 1408 ft 192 kts 154°
2026-05-04 02:16 29.27485 47.91710 1166 ft 177 kts 154°
2026-05-04 02:16 29.26700 47.92129 1014 ft 169 kts 154°
2026-05-04 02:17 29.26203 47.92393 928 ft 162 kts 155°
2026-05-04 02:17 29.25209 47.92923 699 ft 152 kts 155°
2026-05-04 02:17 29.24287 47.93413 462 ft 147 kts 156°
2026-05-04 02:17 29.23372 47.93897 280 ft 143 kts 156°
2026-05-04 02:18 29.22469 47.94375 177 ft 141 kts 155°
2026-05-04 02:18 29.21646 47.94809 205 ft 132 kts 154°
2026-05-04 02:18 29.20854 47.95252 861 ft 106 kts 127°
2026-05-04 02:18 29.20731 47.95123 1420 ft 0 kts 124°
2026-05-04 02:19 29.20287 47.96211 1216 ft 168 kts 159°
2026-05-04 02:19 29.18993 47.96055 1168 ft 218 kts 191°
2026-05-04 02:19 29.17371 47.96142 1479 ft 255 kts 163°
2026-05-04 02:19 29.15536 47.96869 1575 ft 299 kts 160°
2026-05-04 02:20 29.13565 47.97619 2476 ft 305 kts 161°
2026-05-04 02:20 29.11420 47.98278 2860 ft 333 kts 168°
2026-05-04 02:20 29.09046 47.98462 2993 ft 354 kts 185°
2026-05-04 02:20 29.06653 47.97641 3027 ft 360 kts 207°
2026-05-04 02:21 29.04576 47.96247 3026 ft 334 kts 211°
2026-05-04 02:21 29.02612 47.95058 3023 ft 311 kts 197°
2026-05-04 02:21 29.00564 47.94940 3025 ft 287 kts 164°
2026-05-04 02:21 28.98929 47.96007 3025 ft 264 kts 129°
2026-05-04 02:22 28.98210 47.97787 3018 ft 241 kts 92°
2026-05-04 02:22 28.98606 47.99579 3024 ft 240 kts 53°
2026-05-04 02:22 28.99880 48.00968 3028 ft 262 kts 40°
2026-05-04 02:22 29.01091 48.02509 3027 ft 265 kts 52°
2026-05-04 02:23 29.02339 48.04059 3026 ft 264 kts 36°
2026-05-04 02:23 29.04017 48.04818 3030 ft 264 kts
2026-05-04 02:23 29.05835 48.04506 3030 ft 267 kts 341°
2026-05-04 02:23 29.07601 48.03759 3030 ft 267 kts 340°
2026-05-04 02:24 29.09315 48.03010 3029 ft 268 kts 340°
2026-05-04 02:24 29.11041 48.02240 3031 ft 268 kts 340°
2026-05-04 02:24 29.12808 48.01437 3033 ft 268 kts 338°
2026-05-04 02:24 29.14477 48.00513 3032 ft 267 kts 334°
2026-05-04 02:25 29.16078 47.99544 3030 ft 250 kts 333°
2026-05-04 02:25 29.17549 47.98630 3031 ft 240 kts 333°
2026-05-04 02:25 29.19029 47.97704 3032 ft 239 kts 333°
2026-05-04 02:25 29.20488 47.96793 3032 ft 239 kts 333°
2026-05-04 02:26 29.21936 47.95893 3032 ft 239 kts 333°
2026-05-04 02:26 29.23391 47.94993 3035 ft 239 kts 333°
2026-05-04 02:26 29.24844 47.94097 3034 ft 239 kts 333°
2026-05-04 02:26 29.26316 47.93188 3035 ft 239 kts 333°
2026-05-04 02:27 29.27777 47.92288 3035 ft 239 kts 333°
2026-05-04 02:27 29.29241 47.91386 3034 ft 239 kts 333°
2026-05-04 02:27 29.30710 47.90480 3033 ft 239 kts 333°
2026-05-04 02:27 29.32169 47.89578 3032 ft 239 kts 333°
2026-05-04 02:28 29.33643 47.88668 3027 ft 239 kts 333°
2026-05-04 02:28 29.34400 47.88201 3028 ft 239 kts 333°
2026-05-04 02:28 29.35858 47.87300 3025 ft 239 kts 333°
2026-05-04 02:28 29.37177 47.86200 3029 ft 240 kts 307°
2026-05-04 02:29 29.37713 47.84403 3025 ft 243 kts 268°
2026-05-04 02:29 29.37146 47.82603 3025 ft 244 kts 228°
2026-05-04 02:29 29.35793 47.81621 3026 ft 243 kts 190°
2026-05-04 02:29 29.34170 47.81801 3034 ft 230 kts 151°
2026-05-04 02:30 29.33041 47.82989 2764 ft 224 kts 123°
2026-05-04 02:30 29.32165 47.84428 2408 ft 217 kts 123°
2026-05-04 02:30 29.31289 47.85859 2164 ft 211 kts 123°
2026-05-04 02:30 29.30490 47.87161 1950 ft 194 kts 123°
2026-05-04 02:31 29.29743 47.88378 1728 ft 181 kts 123°
2026-05-04 02:31 29.29042 47.89518 1563 ft 171 kts 123°
2026-05-04 02:31 29.28350 47.90599 1360 ft 168 kts 130°
2026-05-04 02:31 29.27472 47.91464 1163 ft 159 kts 144°
2026-05-04 02:32 29.26553 47.92102 984 ft 154 kts 150°
2026-05-04 02:32 29.25612 47.92667 760 ft 149 kts 153°
2026-05-04 02:32 29.24708 47.93175 518 ft 145 kts 155°
2026-05-04 02:32 29.23800 47.93662 360 ft 143 kts 156°
2026-05-04 02:33 29.22907 47.94142 227 ft 142 kts 155°
2026-05-04 02:33 29.22028 47.94620 165 ft 129 kts 155°
2026-05-04 02:33 29.21410 47.94945 168 ft 72 kts 156°
2026-05-04 02:33 29.21052 47.95134 165 ft 34 kts 155°
2026-05-04 02:34 29.20847 47.95247 165 ft 32 kts 154°
2026-05-04 02:34 29.20699 47.95345 168 ft 11 kts 142°
2026-05-04 02:34 29.20647 47.95398 168 ft 10 kts 137°
2026-05-04 02:34 29.20608 47.95451 169 ft 8 kts 128°
2026-05-04 02:35 29.20572 47.95511 169 ft 0 kts 123°
2026-05-04 02:35 29.20555 47.95549 169 ft 11 kts 110°
2026-05-04 02:35 29.20581 47.95616 170 ft 4 kts 18°
2026-05-04 02:35 29.20629 47.95607 172 ft 11 kts 339°
2026-05-04 02:36 29.20731 47.95552 171 ft 22 kts 334°
2026-05-04 02:36 29.20898 47.95465 171 ft 32 kts 333°
2026-05-04 02:36 29.21033 47.95393 167 ft 1 kts 336°
2026-05-04 02:36 29.21082 47.95368 166 ft 14 kts 335°
2026-05-04 02:37 29.21204 47.95303 166 ft 25 kts 336°
2026-05-04 02:37 29.21302 47.95251 164 ft 4 kts 334°